Flag for U.S.A. Weather past 2 weeks in Portsmouth, Virginia, U.S.A.

Now
75 °F

Passing clouds.


Feels Like: 75 °F
Forecast: 70 / 91 °F
Wind: 7 mph from West

Location: Norfolk Naval Air Station

Current Time: Sep 3, 2015 at 8:55:51 AM

Latest Report: Sep 3, 2015 at 7:59 AM


Visibility: 7 mi

Pressure: 29.94 "Hg

Humidity: 82%

Dew point: 69 °F

Location of PortsmouthLocation

Historic Weather in Portsmouth — Graph

°F

Portsmouth temperature yesterday

Maximum temperature yesterday: 93 °F (at 1:59 PM)
Minimum temperature yesterday: 71 °F (at 8:59 PM)
Average temperature yesterday: 79 °F

Past Weeks' High & Low Weather Summary

 TemperatureHumidityPressure
High93 °F (Sep 2, 1:59 PM)97% (Aug 21, 1:59 AM)30.25 "Hg (Aug 21, 1:59 AM)
Low48 °F (Aug 22, 3:59 AM)37% (Aug 30, 1:59 PM)29.86 "Hg (Aug 24, 6:59 PM)
Average77 °F69%30.04 "Hg
* Reported Aug 19 6:59 AM — Sep 3 6:59 AM, Portsmouth, Weather by CustomWeather, © 2015

Note: Actual official high and low records may vary slightly from our data, if they occured in-between our weather recording intervals... More about our weather records

Advertising

Portsmouth weather history for previous 24 hours

 ConditionsComfort  
Time TempWeatherWind HumidityBarometerVisibility
6:59 AM
Thu, Sep 3
73 °FFog.5 mph88%29.93 "Hg6 mi
5:59 AM73 °FPassing clouds.6 mph88%29.92 "Hg7 mi
4:59 AM74 °FPartly cloudy.6 mph85%29.92 "Hg6 mi
3:59 AM74 °FPartly cloudy.6 mph88%29.93 "Hg7 mi
2:59 AM75 °FPassing clouds.6 mph85%29.94 "Hg7 mi
1:59 AM75 °FPartly cloudy.5 mph82%29.95 "Hg8 mi
12:59 AM74 °FPassing clouds.3 mph88%29.96 "Hg7 mi
11:59 PM
Wed, Sep 2
74 °FPartly cloudy.7 mph85%29.96 "Hg7 mi
10:59 PM74 °FPartly cloudy.6 mph88%29.97 "Hg8 mi
9:59 PM73 °FPartly cloudy.10 mph84%29.97 "Hg9 mi
8:59 PM71 °FPartly cloudy.No wind93%29.95 "Hg7 mi
7:59 PM72 °FBroken clouds.No wind87%29.95 "Hg9 mi
6:59 PM73 °FThunderstorms. Mostly cloudy.9 mph84%29.97 "Hg7 mi
5:59 PM72 °FThunderstorms. Mostly cloudy.7 mph81%29.97 "Hg1 mi
4:59 PM89 °FThunderstorms. More clouds than sun.10 mph55%29.95 "Hg8 mi
3:59 PM88 °FOvercast.8 mph54%29.96 "Hg7 mi
2:59 PM92 °FPartly sunny.3 mph43%29.98 "Hg7 mi
1:59 PM93 °FPartly sunny.5 mph42%30.00 "Hg7 mi
12:59 PM91 °FScattered clouds.6 mph45%30.02 "Hg8 mi
11:59 AM89 °FScattered clouds.5 mph50%30.04 "Hg9 mi
10:59 AM86 °FPartly sunny.5 mph57%30.05 "Hg8 mi
9:59 AM82 °FPartly sunny.6 mph67%30.05 "Hg8 mi
8:59 AM80 °FPartly sunny.5 mph76%30.06 "Hg8 mi
Weather by CustomWeather, © 2015

See weather overviewHow to use our weather pages